User: anonymous   Login
Location: Unspecified
(0.0000°N, 0.0000°E)
Time: 01:04:20
(UTC+00:00)
Language:

Himawari 4 - Orbit

View from above orbital plane
View from above orbital plane
View from above satellite
View from above satellite

Ground track
Ground track

The orbit data is extracted from the following two-line orbital elements,

1 20217U 89070A   23086.85871159 -.00000120  00000-0  00000-0 0  9993
2 20217  15.3715 355.2729 0049706 115.2070  52.7198  0.97411687121077
Epoch (UTC): 27 March 2023 20:36:32
Eccentricity: 0.0049706
inclination: 15.3715°
perigee height: 36394 km
apogee height: 36821 km
right ascension of ascending node: 355.2729°
argument of perigee: 115.2070°
revolutions per day: 0.97411687
mean anomaly at epoch: 52.7198°
orbit number at epoch: 12107

The dashed part of the orbit path shows where the satellite is in the earth's shadow,  

DLR